User: anonymous   Login
Location: Newark
(44.3333°N, 7.6167°E)
Time: 13:53:06
(UTC+00:00)
Language:

DOVE 4 - Orbit

View from above orbital plane
View from above orbital plane
View from above satellite
View from above satellite

Ground track
Ground track

The orbit data is extracted from the following two-line orbital elements,

1 39430U 13066Q   20021.15857171  .00000138  00000-0  34412-4 0  9995
2 39430  97.7753 328.7818 0149975 292.1789  66.3562 14.59341178328171
Epoch (UTC): 21 January 2020 03:48:20
Eccentricity: 0.0149975
inclination: 97.7753°
perigee height: 589 km
apogee height: 801 km
right ascension of ascending node: 328.7818°
argument of perigee: 292.1789°
revolutions per day: 14.59341178
mean anomaly at epoch: 66.3562°
orbit number at epoch: 32817

The dashed part of the orbit path shows where the satellite is in the earth's shadow,  

DLR